Date,TemperatureHighF,TemperatureAvgF,TemperatureLowF,DewpointHighF,DewpointAvgF,DewpointLowF,HumidityHigh,HumidityAvg,HumidityLow,PressureMaxIn,PressureMinIn,WindSpeedMaxMPH,WindSpeedAvgMPH,GustSpeedMaxMPH,PrecipitationSumIn
2013-1-1,43.2,37.4,31.2,33.0,29.6,23.0,84,73,65,30.03,29.92,2,0,3,0.00
2013-1-2,38.9,32.7,26.0,31.0,22.7,15.0,82,67,48,30.25,30.01,5,0,6,0.00
2013-1-3,39.1,28.5,20.9,21.0,19.2,16.0,88,69,48,30.27,30.16,4,0,7,0.00
2013-1-4,44.2,33.0,22.2,25.0,21.0,19.0,88,63,42,30.23,30.12,6,0,7,0.00
2013-1-5,45.8,34.6,24.6,29.0,22.8,19.0,81,64,40,30.39,30.17,4,0,5,0.00
2013-1-6,50.4,40.2,26.4,32.0,29.4,25.0,94,68,44,30.20,30.04,4,0,8,0.00
2013-1-7,43.5,37.7,23.9,32.0,26.9,21.0,90,66,50,30.46,30.16,3,1,6,0.00
2013-1-8,52.4,35.6,21.9,34.0,28.9,20.0,94,78,50,30.43,30.36,6,1,8,0.00
2013-1-9,44.6,35.8,25.7,41.0,33.5,25.0,96,91,78,30.41,30.25,2,0,3,0.00
2013-1-10,54.8,45.5,34.8,34.0,30.6,28.0,80,58,36,30.61,30.41,3,1,7,0.00
2013-1-11,44.0,39.0,31.1,41.0,35.6,28.0,97,88,74,30.51,30.11,4,0,8,0.05
2013-1-12,51.2,43.7,40.1,48.0,42.9,40.0,98,96,86,30.19,30.11,3,0,5,0.00
2013-1-13,55.9,49.9,44.0,56.0,49.7,44.0,99,99,98,30.13,29.97,3,0,4,0.03
2013-1-14,59.1,52.0,38.7,59.0,47.9,37.0,99,86,70,30.31,29.95,5,1,8,0.15
2013-1-15,39.0,38.0,35.3,38.0,37.0,35.0,97,96,93,30.34,30.17,2,0,4,0.74
2013-1-16,40.8,37.1,34.0,40.0,36.4,33.0,98,97,95,30.17,29.87,8,1,10,0.26
2013-1-17,43.4,39.6,35.9,40.0,35.1,31.0,98,85,65,30.14,29.99,2,0,6,0.00
2013-1-18,37.5,33.4,28.3,32.0,20.8,13.0,85,61,37,30.49,30.08,6,1,10,0.00
2013-1-19,54.6,40.5,28.2,32.0,28.0,22.0,82,63,39,30.43,29.97,8,4,14,0.00
2013-1-20,59.5,43.2,29.4,35.0,24.2,10.0,76,51,21,30.09,29.84,7,2,12,0.00
2013-1-21,47.3,34.4,28.3,25.0,19.7,13.0,77,56,37,30.10,29.79,7,1,10,0.00
2013-1-22,27.9,20.0,14.4,15.0,1.4,-4.0,62,45,30,30.31,29.96,5,1,9,0.00
2013-1-23,26.3,18.9,8.3,13.0,3.4,-1.0,81,53,32,30.37,30.16,7,0,8,0.00
2013-1-24,27.0,20.3,13.0,17.0,10.9,3.0,90,69,39,30.55,30.11,5,1,10,0.00
2013-1-25,22.8,18.5,12.0,18.0,10.6,4.0,86,72,51,30.54,30.10,8,1,15,0.00
2013-1-26,34.5,27.2,21.8,27.0,22.6,18.0,91,83,67,30.45,30.11,2,0,4,0.02
2013-1-27,38.4,29.8,24.6,24.0,20.2,17.0,85,69,50,30.62,30.46,4,0,7,0.01
2013-1-28,47.3,37.1,28.6,42.0,33.9,23.0,95,88,74,30.51,30.07,7,2,13,0.01
2013-1-29,71.2,53.2,36.5,55.0,47.3,36.0,98,82,56,30.12,29.96,5,1,7,0.00
2013-1-30,71.5,60.4,46.1,63.0,56.7,45.0,98,88,73,29.96,29.22,12,4,18,2.32
2013-1-31,57.2,41.8,26.7,56.0,28.4,15.0,98,61,35,29.92,29.16,7,2,14,0.40
2013-2-1,29.4,24.9,16.6,26.0,11.7,4.0,91,59,35,30.41,29.82,12,1,13,0.00
2013-2-2,30.9,22.0,11.8,26.0,14.3,5.0,93,74,46,30.41,30.02,8,2,10,0.00
2013-2-3,33.1,28.9,23.7,29.0,25.3,14.0,96,87,49,30.02,29.84,3,0,9,0.01
2013-2-4,36.7,29.8,19.6,25.0,17.3,13.0,81,61,49,30.12,29.90,8,1,10,0.00
2013-2-5,41.1,33.5,27.3,30.0,26.5,22.0,91,76,61,29.95,29.86,2,0,3,0.00
2013-2-6,47.5,36.1,26.9,33.0,28.3,23.0,96,75,48,30.35,29.95,5,1,8,0.00
2013-2-7,40.1,33.1,23.8,30.0,25.6,22.0,92,75,57,30.45,30.21,4,0,5,0.00
2013-2-8,41.7,36.3,31.8,38.0,32.0,24.0,96,85,64,30.20,29.77,9,1,12,0.30
2013-2-9,41.7,33.4,23.1,23.0,19.6,16.0,80,58,38,30.40,29.96,8,2,16,0.00
2013-2-10,45.5,33.0,18.6,26.0,19.4,16.0,90,61,33,30.50,30.24,7,1,10,0.00
2013-2-11,55.6,45.6,35.8,51.0,41.1,26.0,98,86,35,30.24,29.72,7,2,11,0.11
2013-2-12,57.5,45.9,32.8,31.0,28.8,26.0,84,54,32,29.99,29.80,7,1,10,0.00
2013-2-13,43.4,35.4,28.8,36.0,30.5,26.0,97,83,63,29.95,29.67,2,0,4,0.12
2013-2-14,50.2,37.8,30.1,33.0,29.8,27.0,97,75,44,30.03,29.80,6,1,7,0.04
2013-2-15,58.4,40.9,27.7,41.0,32.3,26.0,95,75,39,30.04,29.89,7,1,11,0.07
2013-2-16,38.5,34.0,27.7,34.0,27.7,16.0,98,79,55,30.02,29.87,4,1,9,0.01
2013-2-17,31.0,26.5,23.2,17.0,11.5,5.0,71,54,39,30.23,29.87,6,2,14,0.00
2013-2-18,43.1,30.7,17.1,19.0,11.1,7.0,76,46,28,30.41,30.16,6,1,10,0.00
2013-2-19,44.2,38.7,31.1,41.0,30.5,19.0,96,74,52,30.16,29.73,10,3,15,0.02
2013-2-20,39.6,32.7,23.7,24.0,17.3,11.0,68,54,38,30.18,29.87,6,2,11,0.00
2013-2-21,38.2,29.2,22.8,19.0,15.1,10.0,71,57,42,30.33,30.15,5,1,9,0.00
2013-2-22,33.1,30.8,27.3,30.0,24.1,19.0,89,77,62,30.39,30.21,3,0,5,0.04
2013-2-23,44.3,37.6,32.0,42.0,36.2,30.0,97,94,89,30.22,29.83,2,0,4,0.03
2013-2-24,52.4,41.7,31.6,40.0,30.9,19.0,97,69,39,30.14,29.82,8,1,10,0.00
2013-2-25,45.5,34.5,25.8,24.0,22.0,19.0,83,62,40,30.22,30.13,4,0,7,0.00
2013-2-26,41.8,34.3,24.9,41.0,31.9,21.0,98,90,79,30.23,29.62,6,1,11,0.33
2013-2-27,57.2,46.4,38.5,44.0,37.7,33.0,98,74,47,29.70,29.55,4,0,10,0.01
2013-2-28,46.8,42.2,37.4,39.0,30.6,25.0,91,65,46,29.74,29.64,3,1,7,0.00
2013-3-1,44.3,39.7,35.0,30.0,27.9,25.0,71,63,51,29.91,29.74,5,1,10,0.00
2013-3-2,36.2,32.4,28.3,25.0,22.1,18.0,76,66,57,29.92,29.84,7,1,8,0.00
2013-3-3,40.5,33.0,27.6,23.0,19.7,17.0,76,59,42,29.95,29.82,7,1,11,0.00
2013-3-4,43.4,34.3,27.1,19.0,16.9,14.0,65,50,34,30.05,29.94,4,1,10,0.00
2013-3-5,51.8,41.3,31.5,32.0,21.3,17.0,93,47,28,30.09,29.81,4,1,9,0.01
2013-3-6,37.0,34.0,32.4,35.0,32.6,31.0,97,94,82,30.02,29.62,5,1,11,1.07
2013-3-7,45.6,39.0,32.3,32.0,29.6,27.0,90,70,49,30.18,30.02,5,1,10,0.40
2013-3-8,46.9,39.7,33.1,31.0,28.8,27.0,81,66,51,30.30,30.16,5,2,11,0.00
2013-3-9,58.5,43.1,31.3,30.0,27.7,25.0,84,58,28,30.36,30.26,5,1,6,0.00
2013-3-10,64.2,45.4,26.2,33.0,27.3,24.0,93,56,24,30.33,30.20,8,1,12,0.00
2013-3-11,59.9,50.0,39.0,50.0,43.6,31.0,95,79,64,30.24,29.91,9,2,11,0.00
2013-3-12,57.0,51.9,39.3,56.0,45.0,30.0,97,78,59,29.97,29.71,5,2,10,1.12
2013-3-13,49.9,40.6,29.6,32.0,26.1,20.0,87,58,31,30.09,29.91,5,1,10,0.00
2013-3-14,45.7,37.0,30.4,22.0,18.2,16.0,65,48,31,30.16,30.05,8,2,14,0.00
2013-3-15,58.0,43.5,27.3,34.0,25.2,19.0,77,51,31,30.11,29.79,8,2,15,0.00
2013-3-16,60.9,43.7,34.3,48.0,37.5,32.0,91,79,61,29.92,29.62,5,1,10,0.00
2013-3-17,39.4,35.8,29.9,33.0,30.0,25.0,95,80,59,30.28,29.92,2,0,4,0.00
2013-3-18,35.1,33.3,30.5,33.0,31.8,29.0,97,94,87,30.33,29.91,3,0,4,0.58
2013-3-19,59.0,44.9,33.7,44.0,28.8,8.0,98,63,16,29.92,29.73,12,1,14,0.14
2013-3-20,53.0,42.9,29.7,28.0,14.8,10.0,67,34,21,30.01,29.76,8,1,11,0.00
2013-3-21,37.6,32.8,26.4,29.0,16.5,10.0,88,53,36,29.92,29.79,6,1,9,0.00
2013-3-22,47.1,34.5,23.3,22.0,16.9,11.0,69,50,31,30.02,29.89,4,1,9,0.00
2013-3-23,54.0,39.1,23.0,25.0,21.8,19.0,86,55,26,30.05,29.91,5,1,7,0.00
2013-3-24,42.2,35.0,28.1,32.0,25.1,22.0,96,70,45,30.02,29.66,5,0,8,0.00
2013-3-25,40.6,35.0,32.3,36.0,33.4,31.0,97,93,82,29.72,29.54,2,0,4,0.67
2013-3-26,49.2,40.2,30.7,35.0,30.8,26.0,98,72,43,30.01,29.72,5,1,9,0.03
2013-3-27,49.7,41.9,35.9,34.0,28.5,26.0,74,60,44,30.14,30.01,9,2,10,0.00
2013-3-28,49.1,41.1,31.1,32.0,29.0,26.0,80,63,48,30.25,30.11,4,1,11,0.00
2013-3-29,56.3,45.0,34.9,34.0,30.0,25.0,84,58,35,30.27,30.15,4,0,6,0.00
2013-3-30,59.4,44.4,30.0,32.0,27.8,25.0,88,58,28,30.24,30.11,4,0,7,0.00
2013-3-31,51.0,44.2,35.3,49.0,39.5,28.0,97,83,69,30.12,29.77,3,0,6,0.03
2013-4-1,66.3,47.7,37.3,43.0,36.5,23.0,98,69,34,30.00,29.75,11,1,11,0.00
2013-4-2,50.3,40.0,30.8,24.0,16.5,11.0,64,41,22,30.20,30.00,5,1,9,0.00
2013-4-3,52.2,39.1,26.1,22.0,16.0,9.0,70,43,18,30.40,30.20,7,1,9,0.00
2013-4-4,49.5,37.4,21.8,35.0,19.0,14.0,93,52,25,30.43,30.09,6,1,9,0.15
2013-4-5,65.7,49.1,36.3,42.0,32.0,25.0,97,60,25,30.08,29.82,5,1,7,0.18
2013-4-6,56.9,46.0,30.5,27.0,23.2,19.0,77,43,23,30.33,30.06,6,1,8,0.00
2013-4-7,70.3,55.7,37.8,43.0,36.9,27.0,75,51,35,30.27,29.98,12,4,17,0.00
2013-4-8,80.8,67.9,49.1,50.0,45.8,42.0,79,47,29,30.07,29.93,6,2,12,0.00
2013-4-9,86.7,74.1,56.8,55.0,52.8,50.0,78,49,31,30.07,29.91,11,2,12,0.00
2013-4-10,91.2,78.0,59.9,60.0,55.3,52.0,76,48,33,29.97,29.76,7,2,14,0.00
2013-4-11,87.3,73.3,56.1,61.0,56.5,51.0,89,59,32,29.86,29.70,7,2,10,0.00
2013-4-12,77.3,61.0,53.2,66.0,57.0,51.0,97,87,62,29.78,29.54,3,0,7,0.57
2013-4-13,69.7,57.3,40.4,50.0,41.1,36.0,91,58,30,29.95,29.76,7,1,10,0.00
2013-4-14,66.9,55.2,39.3,46.0,39.6,36.0,89,58,38,30.14,29.96,5,1,6,0.00
2013-4-15,65.1,58.6,52.7,52.0,48.9,45.0,84,71,58,30.27,30.12,4,0,7,0.00
2013-4-16,75.1,64.6,55.9,60.0,55.9,50.0,89,75,58,30.30,30.11,9,3,13,0.00
2013-4-17,78.2,65.9,55.8,64.0,59.6,55.0,98,81,56,30.22,30.11,6,1,8,0.05
2013-4-18,78.3,66.9,59.7,65.0,59.2,57.0,95,78,52,30.21,29.98,9,1,13,0.04
2013-4-19,77.5,67.0,50.4,67.0,61.3,49.0,95,82,65,29.97,29.59,9,3,19,1.34
2013-4-20,60.7,51.9,42.9,49.0,34.2,27.0,95,54,29,30.35,29.78,5,1,9,0.00
2013-4-21,54.5,45.5,35.0,33.0,28.3,23.0,82,54,31,30.60,30.35,6,1,8,0.00
2013-4-22,56.9,45.8,32.4,39.0,35.0,31.0,95,69,43,30.57,30.39,11,1,11,0.00
2013-4-23,58.1,49.1,43.3,45.0,41.2,37.0,92,75,60,30.40,30.12,2,0,5,0.00
2013-4-24,77.9,59.8,39.9,57.0,48.9,39.0,97,71,44,30.12,29.79,11,2,16,0.00
2013-4-25,63.7,54.4,42.6,47.0,34.8,28.0,75,50,26,30.32,30.00,8,1,8,0.00
2013-4-26,66.0,54.0,40.7,41.0,37.3,33.0,86,57,30,30.46,30.31,3,0,5,0.00
2013-4-27,72.8,57.3,40.6,45.0,41.3,38.0,91,60,32,30.41,30.27,4,0,7,0.00
2013-4-28,60.9,53.1,42.3,54.0,46.2,40.0,92,78,53,30.29,30.13,3,0,7,0.06
2013-4-29,59.7,55.4,52.5,58.0,53.8,49.0,97,94,78,30.15,30.03,3,0,9,0.40
2013-4-30,59.5,55.8,52.8,57.0,54.7,52.0,98,96,90,30.29,30.09,4,0,5,0.06
2013-5-1,70.6,59.0,46.4,52.0,44.1,32.0,97,64,25,30.43,30.29,4,0,9,0.00
2013-5-2,68.6,54.3,41.0,49.0,45.4,40.0,97,75,43,30.45,30.32,4,0,8,0.00
2013-5-3,69.6,55.0,43.1,51.0,43.4,38.0,97,69,36,30.38,30.28,6,1,10,0.00
2013-5-4,68.0,56.0,42.5,48.0,43.2,40.0,90,65,41,30.34,30.17,5,0,11,0.00
2013-5-5,63.1,51.5,40.2,45.0,41.7,38.0,94,72,47,30.25,30.14,6,0,7,0.00
2013-5-6,60.3,54.7,46.2,57.0,51.7,44.0,94,89,85,30.18,30.04,5,0,8,0.01
2013-5-7,63.1,59.3,55.5,62.0,58.4,55.0,98,96,91,30.05,29.91,4,0,13,1.79
2013-5-8,67.3,56.9,52.0,61.0,55.4,52.0,99,95,75,30.01,29.93,3,0,4,1.75
2013-5-9,75.0,59.9,49.3,63.0,56.1,49.0,99,88,60,30.01,29.93,1,0,3,0.00
2013-5-10,84.3,68.7,51.8,64.0,57.9,51.0,98,73,40,30.02,29.84,6,1,12,0.39
2013-5-11,78.6,66.5,61.4,68.0,63.2,61.0,98,90,58,29.90,29.69,4,0,6,0.09
2013-5-12,65.3,57.9,44.8,62.0,43.2,31.0,97,62,29,30.04,29.75,3,0,6,0.00
2013-5-13,60.4,49.6,38.2,41.0,33.7,27.0,89,58,29,30.18,30.03,7,0,10,0.00
2013-5-14,66.0,52.5,35.5,46.0,36.8,32.0,90,60,30,30.23,30.04,2,0,4,0.00
2013-5-15,85.4,65.9,48.7,66.0,54.5,44.0,88,68,49,30.03,29.68,4,1,11,0.00
2013-5-16,85.5,72.3,62.9,68.0,61.0,55.0,80,68,42,29.93,29.76,2,0,5,0.00
2013-5-17,83.5,71.2,56.4,63.0,56.4,52.0,93,63,36,30.12,29.92,3,0,7,0.00
2013-5-18,65.4,61.2,58.8,60.0,57.4,53.0,97,88,67,30.23,30.12,3,0,6,0.12
2013-5-19,72.9,64.5,58.5,67.0,62.5,58.0,98,93,81,30.21,30.07,2,0,5,0.25
2013-5-20,79.3,71.0,65.1,70.0,67.0,64.0,98,88,70,30.11,29.97,3,0,7,0.00
2013-5-21,83.3,74.1,66.3,73.0,68.9,65.0,97,85,66,30.00,29.86,4,0,7,0.00
2013-5-22,88.0,75.9,65.4,74.0,69.9,64.0,98,83,58,29.92,29.81,5,1,8,0.04
2013-5-23,79.4,70.3,62.4,69.0,65.9,61.0,98,86,69,29.89,29.74,4,1,8,0.70
2013-5-24,62.7,55.9,46.5,62.0,49.0,35.0,98,78,60,30.18,29.75,3,0,8,0.01
2013-5-25,65.0,54.1,43.0,44.0,38.5,34.0,76,57,39,30.22,30.10,4,0,5,0.00
2013-5-26,71.5,59.4,47.5,47.0,40.6,36.0,75,53,29,30.23,30.13,2,0,6,0.00
2013-5-27,70.2,59.3,44.3,54.0,47.3,42.0,93,67,40,30.29,30.18,2,0,3,0.00
2013-5-28,82.1,65.4,53.4,70.0,60.4,51.0,97,85,59,30.20,30.06,3,0,10,0.45
2013-5-29,90.0,76.9,63.9,72.0,66.9,63.0,98,74,46,30.12,30.06,3,1,7,0.00
2013-5-30,92.3,77.9,64.5,77.0,68.0,63.0,94,74,44,30.18,30.09,3,0,6,0.05
2013-5-31,88.5,77.7,63.3,69.0,65.6,62.0,98,69,45,30.14,30.01,5,1,10,0.00
2013-6-1,90.3,79.6,65.8,72.0,67.5,63.0,93,68,49,30.03,29.90,5,1,8,0.00
2013-6-2,81.8,74.5,68.0,72.0,68.1,65.0,97,81,67,29.90,29.84,5,1,9,0.71
2013-6-3,81.2,70.4,64.9,71.0,66.8,60.0,98,89,67,29.96,29.82,1,0,3,0.27
2013-6-4,75.0,65.2,55.8,60.0,52.2,46.0,88,65,38,30.13,29.96,2,0,5,0.00
2013-6-5,79.1,66.6,52.1,61.0,55.7,51.0,96,71,47,30.17,30.04,5,1,10,0.00
2013-6-6,70.1,65.5,61.1,66.0,59.6,50.0,97,82,58,30.08,29.85,4,0,9,0.62
2013-6-7,68.6,66.1,64.0,68.0,65.7,64.0,99,98,97,29.84,29.61,1,0,2,0.75
2013-6-8,78.8,69.1,61.1,67.0,64.1,60.0,99,85,61,30.08,29.73,1,0,5,0.00
2013-6-9,79.6,70.5,62.0,72.0,67.3,61.0,97,90,71,30.18,30.07,1,0,5,0.19
2013-6-10,79.8,71.3,66.6,75.0,69.7,66.0,99,94,80,30.10,29.77,5,1,10,1.31
2013-6-11,83.3,72.7,65.8,71.0,67.0,64.0,98,83,59,29.86,29.79,1,0,3,0.00
2013-6-12,87.5,77.0,65.4,73.0,68.4,63.0,92,76,55,29.86,29.78,1,0,4,0.00
2013-6-13,85.3,72.0,66.4,74.0,67.8,59.0,97,87,65,29.78,29.48,4,0,7,0.17
2013-6-14,76.8,68.7,62.4,60.0,57.6,54.0,85,69,49,29.98,29.62,4,0,9,0.00
2013-6-15,82.6,71.3,59.5,65.0,60.3,56.0,90,70,48,30.08,29.98,1,0,4,0.00
2013-6-16,83.7,72.3,61.4,71.0,64.8,58.0,91,78,55,30.02,29.88,3,0,5,0.00
2013-6-17,88.1,75.2,66.8,73.0,68.5,65.0,97,81,56,29.95,29.87,2,0,2,0.26
2013-6-18,72.0,68.3,65.2,71.0,67.5,65.0,98,97,93,29.91,29.79,1,0,4,0.24
2013-6-19,78.0,68.4,63.3,67.0,64.3,62.0,99,87,65,30.15,29.89,1,0,4,0.01
2013-6-20,77.7,69.2,60.5,64.0,61.1,57.0,99,77,58,30.27,30.15,4,0,8,0.00
2013-6-21,83.0,69.9,55.7,63.0,57.5,53.0,97,68,44,30.30,30.22,4,0,5,0.00
2013-6-22,86.1,73.9,60.4,70.0,65.5,58.0,98,76,56,30.25,30.12,5,1,10,0.00
2013-6-23,84.3,75.0,67.1,74.0,70.1,66.0,97,86,69,30.18,30.06,3,0,3,0.04
2013-6-24,91.3,75.2,68.0,77.0,70.4,67.0,98,86,53,30.12,30.03,2,0,3,0.01
2013-6-25,91.7,79.8,67.1,76.0,71.3,64.0,98,77,54,30.03,29.89,1,0,4,0.00
2013-6-26,89.4,76.3,67.6,76.0,69.9,64.0,94,82,56,29.91,29.81,3,0,6,0.05
2013-6-27,77.8,71.9,67.8,73.0,70.0,67.0,98,93,84,29.83,29.62,5,0,7,0.01
2013-6-28,87.7,74.1,67.8,74.0,70.3,67.0,98,88,61,29.63,29.48,5,0,8,0.20
2013-6-29,87.0,76.0,63.6,73.0,66.3,63.0,99,75,47,29.69,29.52,3,0,6,0.00
2013-6-30,85.4,75.7,66.7,75.0,70.9,66.0,97,85,70,29.85,29.68,6,0,13,0.00
2013-7-1,80.9,75.1,69.8,73.0,71.0,68.0,95,87,73,29.96,29.84,4,1,9,0.03
2013-7-2,80.3,75.3,72.6,74.0,72.5,71.0,96,91,78,30.16,29.96,4,1,9,0.18
2013-7-3,83.5,75.2,71.0,78.0,73.2,70.0,98,93,77,30.22,30.16,2,0,6,0.64
2013-7-4,86.7,79.4,73.2,76.0,73.2,72.0,97,82,63,30.25,30.15,5,1,10,0.00
2013-7-5,86.9,79.8,71.0,76.0,72.8,70.0,97,80,63,30.23,30.11,5,1,11,0.00
2013-7-6,92.1,81.3,71.6,77.0,73.3,71.0,98,78,56,30.18,30.06,4,1,8,0.00
2013-7-7,90.2,78.5,68.8,76.0,72.0,68.0,97,82,61,30.10,29.98,4,0,8,0.21
2013-7-8,84.2,75.2,68.8,76.0,70.6,68.0,99,86,65,30.11,30.04,1,0,5,0.04
2013-7-9,84.1,76.5,69.4,76.0,71.9,68.0,97,86,65,30.10,29.99,4,0,5,0.00
2013-7-10,86.9,78.0,73.7,79.0,74.0,71.0,97,88,70,30.00,29.86,4,0,7,0.01
2013-7-11,84.1,75.8,70.8,73.0,71.7,69.0,98,88,66,29.92,29.84,2,0,3,2.26
2013-7-12,71.5,68.0,65.4,70.0,67.4,65.0,99,98,95,30.04,29.92,2,0,4,2.06
2013-7-13,82.5,74.3,67.6,75.0,70.7,67.0,99,89,70,30.25,30.04,2,0,6,0.00
2013-7-14,88.1,78.8,71.6,77.0,73.5,71.0,99,85,61,30.34,30.26,4,0,6,0.00
2013-7-15,93.3,80.6,70.1,78.0,74.1,70.0,99,82,57,30.30,30.19,1,0,2,0.00
2013-7-16,93.9,81.2,72.3,79.0,74.5,71.0,96,81,58,30.24,30.16,1,0,4,0.00
2013-7-17,94.5,81.5,72.5,80.0,74.6,70.0,94,80,56,30.21,30.08,1,0,2,0.00
2013-7-18,95.5,83.1,72.7,81.0,76.5,71.0,96,82,58,30.11,29.99,1,0,3,0.00
2013-7-19,95.7,84.2,75.7,81.0,76.6,70.0,97,79,56,30.01,29.86,7,0,7,0.00
2013-7-20,91.9,81.2,72.9,78.0,73.9,70.0,92,79,60,29.90,29.79,2,0,7,0.00
2013-7-21,91.3,78.1,70.6,76.0,72.8,69.0,97,85,54,29.94,29.86,1,0,3,0.16
2013-7-22,86.7,77.6,70.5,76.0,73.0,70.0,98,86,67,29.92,29.75,4,0,7,0.02
2013-7-23,86.0,76.3,70.2,76.0,71.6,70.0,98,86,65,29.76,29.65,1,0,2,0.00
2013-7-24,81.4,73.7,67.9,71.0,67.9,62.0,96,82,67,29.91,29.68,1,0,3,0.00
2013-7-25,79.0,69.0,61.3,62.0,59.0,54.0,87,72,51,30.04,29.91,2,0,6,0.00
2013-7-26,81.0,69.6,57.7,66.0,62.0,57.0,98,78,51,30.10,30.02,1,0,3,0.00
2013-7-27,83.7,70.4,61.8,74.0,67.2,61.0,98,90,69,30.05,29.93,5,1,8,0.41
2013-7-28,83.2,73.5,68.1,74.0,70.6,67.0,98,91,68,29.98,29.89,2,0,3,0.24
2013-7-29,81.0,69.7,59.6,66.0,62.1,59.0,98,79,47,30.16,29.98,1,0,2,0.01
2013-7-30,82.1,70.5,58.9,67.0,62.5,57.0,96,78,50,30.23,30.14,2,0,2,0.00
2013-7-31,77.8,69.3,61.6,72.0,66.4,61.0,98,91,76,30.15,30.01,3,0,7,0.16
2013-8-1,83.2,72.5,67.6,74.0,69.8,67.0,98,92,69,30.02,29.81,2,0,4,0.12
2013-8-2,86.3,74.5,63.8,71.0,67.2,63.0,98,80,51,29.97,29.86,2,0,6,0.00
2013-8-3,81.8,70.3,65.1,72.0,67.3,64.0,97,91,68,29.97,29.92,0,0,3,0.02
2013-8-4,81.6,70.5,62.1,66.0,61.8,57.0,98,76,50,30.04,29.92,1,0,4,0.00
2013-8-5,81.8,67.0,56.1,63.0,58.6,55.0,96,77,45,30.11,30.01,2,0,3,0.00
2013-8-6,73.4,68.3,64.9,69.0,65.9,62.0,97,92,83,30.07,30.00,2,0,4,0.10
2013-8-7,83.1,74.7,68.2,74.0,70.6,67.0,98,87,71,30.06,29.98,5,1,8,0.01
2013-8-8,83.1,77.1,72.1,76.0,73.0,70.0,96,87,72,30.02,29.96,8,1,10,0.02
2013-8-9,88.7,80.0,73.7,79.0,74.8,71.0,95,84,67,29.96,29.86,3,0,6,0.00
2013-8-10,83.5,75.0,67.8,72.0,68.3,63.0,94,80,50,30.08,29.94,1,0,2,0.00
2013-8-11,83.1,74.7,67.9,72.0,68.2,65.0,96,82,55,30.11,30.00,4,0,6,0.00
2013-8-12,89.2,77.1,68.0,74.0,70.4,67.0,98,81,53,30.03,29.91,2,0,3,0.00
2013-8-13,84.6,74.9,68.1,74.0,71.3,67.0,97,89,66,29.90,29.73,2,0,5,0.35
2013-8-14,74.1,65.3,56.6,67.0,55.7,51.0,97,73,49,30.10,29.83,4,0,6,0.00
2013-8-15,78.6,64.8,54.5,59.0,54.3,49.0,95,72,37,30.19,30.10,2,0,3,0.00
2013-8-16,78.4,65.6,53.0,63.0,57.0,52.0,97,76,46,30.20,30.13,1,0,4,0.00
2013-8-17,80.4,67.6,55.5,63.0,59.1,54.0,97,77,48,30.26,30.20,4,0,6,0.00
2013-8-18,68.3,65.3,62.0,67.0,63.8,61.0,98,94,86,30.24,30.18,0,0,2,0.18
2013-8-19,73.5,66.6,59.5,69.0,64.4,59.0,99,92,83,30.18,30.07,2,0,5,0.01
2013-8-20,86.1,73.7,62.3,72.0,68.2,62.0,99,84,59,30.17,30.09,3,0,4,0.00
2013-8-21,88.2,75.7,66.6,75.0,70.7,66.0,99,85,61,30.19,30.07,4,0,7,0.09
2013-8-22,88.2,76.4,67.8,74.0,70.1,67.0,99,82,56,30.09,29.93,1,0,3,0.00
2013-8-23,73.5,68.3,61.3,71.0,66.6,61.0,98,94,88,30.12,29.93,1,0,2,0.29
2013-8-24,82.8,68.7,58.6,65.0,62.0,58.0,99,81,48,30.33,30.12,1,0,3,0.00
2013-8-25,82.7,69.5,59.1,68.0,61.4,58.0,98,78,51,30.41,30.27,4,0,6,0.00
2013-8-26,87.7,73.0,60.9,69.0,63.6,58.0,93,75,45,30.30,30.02,3,0,4,0.00
2013-8-27,88.6,77.3,67.8,75.0,70.6,65.0,92,81,62,30.01,29.88,0,0,0,0.00
2013-8-28,78.1,73.3,70.7,74.0,71.4,69.0,98,93,85,29.92,29.81,0,0,0,0.10
2013-8-29,82.2,74.2,69.0,73.0,71.0,68.0,98,90,70,30.02,29.83,0,0,0,0.00
2013-8-30,84.0,74.8,67.0,74.0,69.7,67.0,99,85,67,30.04,29.89,5,1,7,0.00
2013-8-31,90.7,78.4,69.1,75.0,71.2,68.0,96,80,55,29.90,29.79,5,1,6,0.00
2013-9-1,94.0,77.7,66.1,75.0,71.2,65.0,98,82,50,29.84,29.75,2,0,5,0.00
2013-9-2,90.8,78.5,69.3,76.0,72.0,68.0,98,82,54,29.84,29.72,5,0,7,0.11
2013-9-3,82.7,74.6,65.2,73.0,65.4,59.0,95,75,50,29.96,29.73,2,0,4,0.00
2013-9-4,83.1,68.5,55.2,63.0,57.8,53.0,95,72,37,30.09,29.97,2,0,3,0.00
2013-9-5,83.9,69.8,56.6,65.0,59.9,54.0,97,73,48,30.13,30.01,1,0,4,0.00
2013-9-6,77.2,63.6,54.4,54.0,51.2,48.0,87,67,37,30.26,30.13,2,0,5,0.00
2013-9-7,82.5,65.9,50.0,64.0,57.3,49.0,97,76,48,30.15,29.94,3,0,7,0.00
2013-9-8,88.2,73.7,62.4,69.0,65.4,61.0,96,78,48,30.04,29.87,2,0,3,0.01
2013-9-9,78.4,69.9,60.1,67.0,60.3,53.0,90,72,57,30.20,30.05,4,0,7,0.00
2013-9-10,93.3,78.7,68.1,76.0,71.0,66.0,97,79,53,30.17,30.08,5,0,8,0.00
2013-9-11,92.3,80.9,70.1,77.0,73.0,69.0,97,79,54,30.14,30.00,5,0,8,0.00
2013-9-12,93.0,75.3,68.7,75.0,70.4,68.0,98,86,51,29.99,29.75,4,0,8,0.17
2013-9-13,77.2,67.6,55.7,68.0,59.1,51.0,98,77,45,29.96,29.71,2,0,4,0.02
2013-9-14,70.7,58.7,49.4,51.0,47.6,45.0,90,69,40,30.17,29.96,3,0,7,0.00
2013-9-15,76.2,60.4,43.5,59.0,51.9,43.0,97,76,49,30.24,30.09,6,0,8,0.00
2013-9-16,70.8,62.1,54.9,62.0,58.3,54.0,97,88,65,30.23,30.04,2,0,3,0.06
2013-9-17,68.5,57.0,47.2,54.0,47.4,43.0,97,73,43,30.43,30.24,1,0,4,0.00
2013-9-18,70.8,56.0,41.5,53.0,47.0,40.0,97,75,44,30.35,30.19,3,0,7,0.00
2013-9-19,79.0,61.6,46.9,60.0,54.4,46.0,97,79,50,30.21,30.08,4,0,6,0.00
2013-9-20,78.3,66.0,52.6,64.0,59.3,52.0,98,81,61,30.09,29.95,5,0,6,0.00
2013-9-21,69.8,64.7,60.4,66.0,62.0,58.0,98,91,80,29.96,29.69,7,1,8,1.01
2013-9-22,71.4,61.6,54.0,60.0,56.5,51.0,99,84,61,29.96,29.74,2,0,3,0.00
2013-9-23,65.5,55.4,48.4,51.0,48.3,46.0,94,79,50,30.10,29.96,1,0,3,0.00
2013-9-24,72.1,55.7,41.7,55.0,48.6,41.0,98,80,51,30.12,29.96,3,0,5,0.00
2013-9-25,75.3,58.2,45.5,55.0,49.3,45.0,98,76,36,30.00,29.89,2,0,3,0.00
2013-9-26,77.6,61.7,51.3,56.0,52.3,49.0,95,74,39,30.08,29.93,2,0,5,0.00
2013-9-27,70.1,59.2,49.3,61.0,55.4,48.0,97,88,69,30.24,30.08,2,0,3,0.00
2013-9-28,67.3,59.1,52.7,59.0,54.7,51.0,98,86,65,30.31,30.22,1,0,3,0.00
2013-9-29,73.6,59.0,48.3,58.0,52.7,48.0,98,82,47,30.22,30.06,1,0,6,0.00
2013-9-30,76.4,60.8,48.0,59.0,54.3,47.0,98,81,52,30.10,29.98,4,0,5,0.00
2013-10-1,83.3,66.3,54.5,64.0,58.7,53.0,96,79,49,30.08,29.97,2,0,4,0.00
2013-10-2,85.2,68.4,55.8,65.0,60.2,55.0,97,78,46,30.09,30.00,3,0,3,0.00
2013-10-3,82.7,68.4,56.9,67.0,62.3,56.0,97,82,56,30.12,30.04,2,0,5,0.00
2013-10-4,86.9,70.9,58.5,69.0,64.0,58.0,98,81,47,30.09,30.01,1,0,3,0.00
2013-10-5,88.3,73.8,62.1,70.0,65.3,61.0,97,78,47,30.09,29.99,4,0,9,0.00
2013-10-6,86.9,73.9,61.7,71.0,65.1,61.0,97,77,48,30.02,29.90,10,1,13,0.00
2013-10-7,72.4,64.2,52.7,70.0,61.9,49.0,97,92,82,30.07,29.77,8,1,11,1.75
2013-10-8,67.1,55.4,45.6,52.0,48.9,45.0,97,80,53,30.29,30.07,3,0,5,0.00
2013-10-9,60.1,54.5,51.4,53.0,50.4,47.0,97,86,73,30.33,30.23,1,0,4,0.15
2013-10-10,55.7,53.6,51.4,55.0,53.0,51.0,99,98,96,30.22,30.00,2,0,7,1.65
2013-10-11,60.7,57.7,55.5,61.0,57.5,55.0,99,99,98,30.00,29.95,1,0,3,2.56
2013-10-12,63.0,60.7,58.2,63.0,60.5,58.0,99,98,93,30.16,29.99,1,0,4,0.35
2013-10-13,59.3,58.3,57.1,59.0,58.2,57.0,99,99,99,30.32,30.16,0,0,3,0.53
2013-10-14,68.3,58.2,52.3,59.0,55.4,52.0,99,91,68,30.35,30.23,1,0,3,0.00
2013-10-15,71.2,58.6,49.1,58.0,53.0,48.0,99,84,47,30.25,30.09,2,0,4,0.00
2013-10-16,71.2,63.7,57.5,63.0,60.1,57.0,98,88,73,30.09,29.91,5,0,7,0.00
2013-10-17,74.6,65.9,58.6,65.0,61.6,55.0,99,87,68,29.91,29.72,8,1,11,0.00
2013-10-18,66.9,56.5,46.1,53.0,45.8,42.0,92,69,45,30.02,29.84,1,0,5,0.00
2013-10-19,64.3,53.5,44.0,58.0,51.0,43.0,97,91,76,30.01,29.79,8,1,9,0.00
2013-10-20,62.9,51.5,41.9,50.0,40.1,37.0,95,68,40,30.11,29.89,2,0,6,0.00
2013-10-21,66.9,50.9,36.3,48.0,41.2,35.0,98,74,37,30.16,29.96,8,1,13,0.00
2013-10-22,63.2,52.7,46.0,53.0,46.8,42.0,93,81,63,29.96,29.82,1,0,3,0.00
2013-10-23,57.1,48.6,42.5,42.0,38.0,35.0,84,68,45,29.93,29.67,2,0,3,0.00
2013-10-24,51.8,42.5,37.6,36.0,32.4,28.0,89,70,42,30.16,29.93,2,0,8,0.00
2013-10-25,53.8,42.8,34.4,34.0,32.1,30.0,88,68,46,30.34,30.14,3,0,5,0.00
2013-10-26,55.3,43.0,28.1,35.0,30.0,27.0,95,64,38,30.32,29.96,11,1,13,0.00
2013-10-27,61.4,47.2,36.9,42.0,37.4,34.0,91,71,41,30.15,29.98,1,0,4,0.00
2013-10-28,63.8,47.1,35.7,44.0,39.1,34.0,94,77,44,30.29,30.15,2,0,3,0.00
2013-10-29,64.0,49.2,39.4,46.0,41.4,37.0,95,77,46,30.39,30.28,1,0,2,0.00
2013-10-30,64.7,53.9,45.6,55.0,49.8,43.0,96,86,70,30.33,30.15,2,0,7,0.00
2013-10-31,69.1,60.7,50.6,60.0,56.6,50.0,97,87,72,30.18,29.76,12,2,14,0.00
2013-11-1,75.7,66.6,55.4,64.0,59.5,54.0,96,79,51,29.76,29.58,13,2,17,0.12
2013-11-2,69.9,55.9,47.4,55.0,46.2,39.0,97,73,41,29.89,29.65,3,0,5,0.00
2013-11-3,56.3,49.8,40.7,41.0,35.8,24.0,79,61,32,30.34,29.89,4,1,8,0.00
2013-11-4,45.0,37.9,33.5,30.0,27.5,23.0,84,68,43,30.64,30.58,0,0,2,0.00
2013-11-5,54.1,44.5,32.3,45.0,37.2,28.0,87,76,60,30.64,30.47,1,0,3,0.00
2013-11-6,67.0,56.4,48.1,53.0,49.3,45.0,90,78,60,30.47,30.07,9,1,11,0.00
2013-11-7,58.3,52.5,41.7,56.0,45.9,27.0,95,79,51,30.09,29.89,5,1,12,0.04
2013-11-8,50.8,40.7,30.2,33.0,27.8,26.0,86,62,39,30.34,30.09,5,0,7,0.00
2013-11-9,54.7,41.7,25.7,32.0,28.4,24.0,94,64,39,30.37,30.05,10,2,13,0.00
2013-11-10,64.5,48.6,38.0,38.0,30.8,27.0,75,52,28,30.26,29.97,7,1,8,0.00
2013-11-11,57.2,48.0,35.3,33.0,30.2,28.0,80,52,33,30.31,30.01,6,2,13,0.00
2013-11-12,51.5,39.4,27.9,38.0,24.7,16.0,75,56,42,30.42,29.99,6,1,10,0.00
2013-11-13,42.3,33.8,26.1,22.0,19.9,17.0,75,58,39,30.51,30.40,5,1,7,0.00
2013-11-14,58.0,36.6,21.3,26.0,21.9,18.0,89,61,25,30.40,30.23,4,0,8,0.00
2013-11-15,61.8,42.4,25.1,43.0,27.8,21.0,94,63,22,30.29,30.19,3,0,6,0.10
2013-11-16,50.9,47.5,41.4,50.0,46.5,40.0,98,96,92,30.33,30.23,2,0,3,0.18
2013-11-17,60.8,55.5,50.4,59.0,54.6,50.0,99,97,94,30.23,29.74,7,1,12,0.04
2013-11-18,68.5,57.8,47.4,60.0,40.2,27.0,97,58,22,29.96,29.70,8,1,13,0.11
2013-11-19,47.9,42.4,35.9,30.0,27.6,26.0,70,57,46,30.38,29.96,6,1,8,0.00
2013-11-20,46.5,35.4,27.9,28.0,25.4,22.0,91,69,39,30.57,30.38,3,0,5,0.00
2013-11-21,48.1,39.1,26.8,40.0,33.8,25.0,95,82,67,30.58,30.39,1,0,2,0.00
2013-11-22,63.6,54.9,42.1,53.0,48.4,39.0,88,79,66,30.39,30.01,4,1,8,0.00
2013-11-23,54.9,43.5,30.6,48.0,29.1,16.0,79,58,39,30.23,30.05,6,1,10,0.00
2013-11-24,31.2,26.2,21.8,16.0,7.6,3.0,61,46,33,30.55,30.23,6,2,12,0.00
2013-11-25,36.6,27.6,17.3,15.0,11.2,8.0,81,52,33,30.60,30.34,6,1,10,0.00
2013-11-26,36.4,34.3,32.3,36.0,27.8,14.0,98,80,43,30.35,29.62,3,0,6,1.72
2013-11-27,39.6,36.3,27.9,39.0,31.3,15.0,98,82,59,30.08,29.55,7,-9,12,0.49
2013-11-28,37.6,29.8,24.7,25.0,18.7,14.0,88,65,46,30.48,30.09,5,1,10,0.00
2013-11-29,41.3,30.0,22.1,27.0,22.1,20.0,92,74,47,30.73,30.47,3,0,7,0.00
2013-11-30,36.7,27.4,20.6,24.0,21.5,18.0,92,79,58,30.73,30.39,2,0,4,0.00
2013-12-1,47.2,33.1,19.4,34.0,26.8,18.0,96,79,53,30.39,30.03,2,0,4,0.00
2013-12-2,47.3,40.3,35.8,38.0,35.0,33.0,91,81,67,30.02,29.88,1,0,2,0.00
2013-12-3,56.4,41.7,33.5,41.0,36.4,32.0,95,82,56,30.00,29.89,6,0,6,0.00
2013-12-4,57.0,45.7,33.5,51.0,42.4,33.0,98,88,71,30.09,30.00,2,0,5,0.00
2013-12-5,67.9,59.8,53.1,62.0,56.9,51.0,96,90,77,30.06,29.92,9,2,14,0.00
2013-12-6,64.9,49.1,38.0,63.0,47.7,37.0,97,95,88,30.17,29.87,5,1,9,0.85
2013-12-7,41.4,35.8,26.8,37.0,31.3,24.0,97,84,65,30.56,30.15,4,1,6,0.16
2013-12-8,30.9,27.6,25.5,30.0,25.0,21.0,97,90,76,30.59,30.32,2,0,3,0.00
2013-12-9,34.0,32.3,30.6,33.0,31.5,30.0,98,97,95,30.32,30.04,0,0,1,0.00
2013-12-10,37.6,31.4,23.3,36.0,29.9,22.0,98,94,70,30.24,30.01,5,0,5,0.08
2013-12-11,40.7,26.3,17.3,27.0,21.7,16.0,97,85,48,30.42,30.24,3,0,6,0.00
2013-12-12,32.6,25.1,18.4,23.0,16.7,11.0,96,72,43,30.46,30.27,3,0,5,0.00
2013-12-13,41.3,29.5,18.1,26.0,19.8,13.0,90,69,41,30.32,30.23,4,0,8,0.00
2013-12-14,35.9,32.8,28.8,34.0,30.5,26.0,98,91,81,30.33,29.73,1,0,3,0.02
2013-12-15,45.0,35.2,27.0,41.0,30.8,24.0,99,85,61,29.96,29.65,4,0,10,0.22
2013-12-16,35.4,32.6,28.1,29.0,27.0,25.0,89,80,68,30.20,29.96,2,0,6,0.01
2013-12-17,39.7,34.5,30.6,34.0,30.9,28.0,93,86,79,30.17,29.94,4,0,7,0.01
2013-12-18,41.3,32.2,25.2,31.0,24.9,22.0,97,76,50,30.23,30.02,4,0,6,0.02
2013-12-19,59.8,40.5,24.4,34.0,28.3,22.0,92,66,36,30.22,30.08,4,1,10,0.00
2013-12-20,57.7,51.1,43.4,42.0,34.6,30.0,62,54,46,30.12,30.01,7,2,9,0.00
2013-12-21,69.0,60.8,52.0,61.0,51.6,41.0,83,72,59,30.02,29.89,10,4,19,0.00
2013-12-22,70.5,64.7,61.4,64.0,61.1,59.0,97,88,80,30.00,29.80,13,4,20,0.30
2013-12-23,62.0,53.0,36.3,60.0,49.7,31.0,98,88,73,30.24,29.91,3,0,8,0.77
2013-12-24,40.0,31.4,21.1,30.0,21.4,9.0,89,68,48,30.51,30.22,3,1,9,0.00
2013-12-25,31.9,23.9,17.9,17.0,13.2,11.0,87,65,45,30.60,30.39,6,0,6,0.00
2013-12-26,45.7,29.3,17.4,27.0,20.3,15.0,93,72,36,30.39,30.24,3,0,6,0.00
2013-12-27,50.6,33.5,22.2,26.0,22.3,20.0,90,67,34,30.45,30.33,8,1,8,0.00
2013-12-28,57.8,40.7,24.9,31.0,26.2,22.0,89,60,33,30.35,30.12,4,1,10,0.00
2013-12-29,47.1,43.1,37.2,46.0,39.1,27.0,98,87,50,30.12,29.58,3,0,9,1.39
2013-12-30,44.4,37.3,31.1,40.0,33.1,26.0,98,85,67,30.20,29.83,4,0,8,0.00
2013-12-31,43.6,32.9,24.6,30.0,24.2,19.0,85,72,47,30.34,30.12,8,1,12,0.00
2014-1-1,47.3,33.5,22.2,30.0,25.3,19.0,91,74,50,30.43,30.13,6,1,8,0.00
2014-1-2,34.7,30.8,26.8,32.0,29.1,25.0,97,93,87,30.12,29.64,4,0,4,0.00